Home > Weather > Chengdu > Past weeks

Flag for China Past Weather in Chengdu, Sichuan, China — Yesterday and Last 2 Weeks

Now
79 °F

Sunny.


Feels Like: 82 °F
Forecast: 76 / 87 °F
Wind: 1 mph from North

Location: Chengdu Airport

Current Time: Aug 26, 2016 at 9:42:48 AM

Latest Report: Aug 26, 2016 at 9:00 AM


Visibility: 10 mi

Pressure: 29.89 "Hg

Humidity: 89%

Dew Point: 75 °F

Location of ChengduLocation

Past Weather in Chengdu — Graph

°F

Chengdu Temperature Yesterday

Maximum temperature yesterday: 99 °F (at 2:00 PM)
Minimum temperature yesterday: 82 °F (at 4:00 PM)
Average temperature yesterday: 89 °F

High & Low Weather Summary for the Past Weeks

 TemperatureHumidityPressure
High100 °F (Aug 19, 4:00 PM)100% (Aug 11, 5:00 PM)29.89 "Hg (Aug 11, 5:00 PM)
Low75 °F (Aug 15, 5:00 AM)39% (Aug 23, 6:00 PM)29.47 "Hg (Aug 17, 4:00 PM)
Average87 °F72%29.67 "Hg
* Reported Aug 11 8:00 AM — Aug 26 8:00 AM, Chengdu, Weather by CustomWeather, © 2016

Note: Actual official high and low records may vary slightly from our data, if they occured in-between our weather recording intervals... More about our weather records

Advertising

Chengdu Weather History for the Previous 24 Hours

Scroll right to see more
 ConditionsComfort  
Time TempWeatherWind HumidityBarometerVisibility
8:00 AM
Fri, Aug 26
77 °FSunny.1 mph94%29.89 "Hg10 mi
7:00 AM75 °FPassing clouds.1 mph94%29.86 "HgN/A
6:00 AM75 °FClear.6 mph94%29.86 "Hg10 mi
5:00 AM75 °FSprinkles. Passing clouds.6 mph100%29.80 "HgN/A
4:00 AM75 °FThunderstorms. Passing clouds.6 mph100%29.86 "HgN/A
3:00 AM75 °FThunderstorms. Passing clouds.3 mph100%29.86 "HgN/A
2:00 AM75 °FThunderstorms. Passing clouds.3 mph94%29.86 "HgN/A
1:00 AM77 °FThunderstorms. Passing clouds.3 mph79%29.86 "HgN/A
12:00 AM86 °FThunderstorms. Passing clouds.3 mph46%29.83 "HgN/A
11:00 PM
Thu, Aug 25
88 °FThunderstorms. Passing clouds.17 mph43%29.80 "HgN/A
10:00 PM88 °FPassing clouds.17 mph46%29.77 "HgN/A
9:00 PM88 °FPassing clouds.13 mph52%29.74 "HgN/A
8:00 PM88 °FClear.10 mph52%29.71 "Hg10 mi
7:00 PM90 °FSunny.8 mph55%29.68 "Hg10 mi
6:00 PM91 °FSunny.10 mph59%29.68 "Hg10 mi
5:00 PM88 °FPassing clouds.3 mph84%29.68 "HgN/A
4:00 PM82 °FThunderstorms. Partly sunny.3 mph94%29.68 "HgN/A
3:00 PM95 °FThunderstorms. Scattered clouds.6 mph53%29.68 "HgN/A
2:00 PM99 °FScattered clouds.1 mph47%29.71 "HgN/A
1:00 PM97 °FPassing clouds.3 mph50%29.74 "HgN/A
12:00 PM97 °FPassing clouds.6 mph53%29.77 "HgN/A
11:00 AM95 °FPassing clouds.3 mph53%29.77 "HgN/A
10:00 AM93 °FPassing clouds.6 mph56%29.77 "HgN/A
9:00 AM88 °FPassing clouds.1 mph70%29.77 "Hg5 mi
Weather by CustomWeather, © 2016

See weather overviewHow to use our weather pages